When you browse on this site, cookies collect data to enhance your experience and personalize the content and advertising you see.
Visit our Privacy Policy to learn more. By continuing to use the site, you agree to this use of cookies and data.
  • en Belgique
  • Liste des pays
  • À 7 jours
  • Température de l'eau
  • Carte satellitaire
  • Carte météo
  • Widgets météo
  • user-avatar
    Se connecter

    Météo par heure à Brasschaat

    Ce jour, 21 Février, Jeudi

    Heure Température Précipitation Vent Pression Humidité
    00:00 +5°C° 0 mm 3 m/s 768 mmHg 90%
    01:00 +5°C° 0 mm 3 m/s 768 mmHg 91%
    02:00 +5°C° 0 mm 3 m/s 768 mmHg 91%
    03:00 +5°C° 0 mm 3 m/s 768 mmHg 92%
    04:00 +4°C° 0 mm 3 m/s 768 mmHg 92%
    05:00 +4°C° 0 mm 3 m/s 768 mmHg 92%
    06:00 +4°C° 0 mm 3 m/s 768 mmHg 93%
    07:00 +5°C° 0 mm 3 m/s 768 mmHg 89%
    08:00 +6°C° 0 mm 4 m/s 769 mmHg 85%
    09:00 +7°C° 0 mm 4 m/s 769 mmHg 81%
    10:00 +8°C° 0 mm 4 m/s 769 mmHg 78%
    11:00 +9°C° 0 mm 3 m/s 769 mmHg 75%
    12:00 +10°C° 0 mm 3 m/s 769 mmHg 72%
    13:00 +10°C° 0 mm 3 m/s 769 mmHg 73%
    14:00 +10°C° 0 mm 3 m/s 769 mmHg 74%
    15:00 +10°C° 0 mm 3 m/s 769 mmHg 75%
    16:00 +10°C° 0 mm 2 m/s 770 mmHg 77%
    17:00 +9°C° 0 mm 2 m/s 770 mmHg 80%
    18:00 +9°C° 0 mm 2 m/s 771 mmHg 83%
    19:00 +9°C° 0 mm 2 m/s 771 mmHg 83%
    20:00 +9°C° 0 mm 2 m/s 772 mmHg 84%
    21:00 +9°C° 0 mm 2 m/s 772 mmHg 85%
    22:00 +8°C° 0 mm 2 m/s 772 mmHg 87%
    23:00 +8°C° 0 mm 2 m/s 773 mmHg 89%

    Demain, 22 Février, Vendredi

    Heure Température Précipitation Vent Pression Humidité
    00:00 +7°C° 0 mm 2 m/s 773 mmHg 92%
    01:00 +7°C° 0 mm 2 m/s 773 mmHg 92%
    02:00 +8°C° 0 mm 1 m/s 774 mmHg 93%
    03:00 +8°C° 0 mm 1 m/s 774 mmHg 94%
    04:00 +8°C° 0 mm 1 m/s 774 mmHg 94%
    05:00 +7°C° 0 mm 1 m/s 774 mmHg 95%
    06:00 +7°C° 0 mm 1 m/s 774 mmHg 95%
    07:00 +7°C° 0 mm 0 m/s 775 mmHg 92%
    08:00 +8°C° 0 mm 0 m/s 775 mmHg 89%
    09:00 +9°C° 0 mm 0 m/s 775 mmHg 87%
    10:00 +11°C° 0 mm 0 m/s 775 mmHg 81%
    11:00 +12°C° 0 mm 0 m/s 776 mmHg 76%
    12:00 +14°C° 0 mm 0 m/s 776 mmHg 71%
    13:00 +15°C° 0 mm 1 m/s 776 mmHg 70%
    14:00 +16°C° 0 mm 1 m/s 776 mmHg 70%
    15:00 +16°C° 0 mm 2 m/s 775 mmHg 69%
    16:00 +15°C° 0 mm 2 m/s 776 mmHg 74%
    17:00 +14°C° 0 mm 2 m/s 776 mmHg 78%
    18:00 +13°C° 0 mm 2 m/s 776 mmHg 82%
    19:00 +13°C° 0 mm 2 m/s 776 mmHg 84%
    20:00 +11°C° 0 mm 3 m/s 776 mmHg 86%
    21:00 +10°C° 0 mm 3 m/s 777 mmHg 88%
    22:00 +9°C° 0 mm 3 m/s 776 mmHg 89%
    23:00 +8°C° 0 mm 3 m/s 776 mmHg 90%

    Après-demain, 23 Février, Samedi

    Heure Température Précipitation Vent Pression Humidité
    00:00 +8°C° 0 mm 3 m/s 776 mmHg 90%
    01:00 +7°C° 0 mm 3 m/s 776 mmHg 90%
    02:00 +7°C° 0 mm 3 m/s 776 mmHg 90%
    03:00 +7°C° 0 mm 2 m/s 776 mmHg 90%
    04:00 +6°C° 0 mm 2 m/s 776 mmHg 89%
    05:00 +6°C° 0 mm 2 m/s 776 mmHg 89%
    06:00 +6°C° 0 mm 2 m/s 776 mmHg 89%
    07:00 +6°C° 0 mm 2 m/s 776 mmHg 83%
    08:00 +7°C° 0 mm 3 m/s 776 mmHg 78%
    09:00 +8°C° 0 mm 3 m/s 776 mmHg 72%
    10:00 +10°C° 0 mm 3 m/s 776 mmHg 65%
    11:00 +11°C° 0 mm 3 m/s 776 mmHg 57%
    12:00 +12°C° 0 mm 3 m/s 776 mmHg 50%
    13:00 +13°C° 0 mm 3 m/s 776 mmHg 48%
    14:00 +13°C° 0 mm 4 m/s 775 mmHg 45%
    15:00 +14°C° 0 mm 4 m/s 775 mmHg 43%
    16:00 +12°C° 0 mm 4 m/s 775 mmHg 44%
    17:00 +11°C° 0 mm 4 m/s 775 mmHg 46%
    18:00 +8°C° 0 mm 4 m/s 775 mmHg 47%
    19:00 +9°C° 0 mm 3 m/s 775 mmHg 48%
    20:00 +8°C° 0 mm 3 m/s 775 mmHg 49%
    21:00 +8°C° 0 mm 3 m/s 776 mmHg 50%
    22:00 +7°C° 0 mm 3 m/s 776 mmHg 52%
    23:00 +7°C° 0 mm 3 m/s 776 mmHg 53%

    24 Février, Dimanche

    Heure Température Précipitation Vent Pression Humidité
    00:00 +6°C° 0 mm 2 m/s 776 mmHg 54%
    01:00 +6°C° 0 mm 2 m/s 776 mmHg 54%
    02:00 +5°C° 0 mm 2 m/s 775 mmHg 53%
    03:00 +5°C° 0 mm 2 m/s 775 mmHg 53%
    04:00 +5°C° 0 mm 2 m/s 775 mmHg 52%
    05:00 +4°C° 0 mm 2 m/s 775 mmHg 51%
    06:00 +4°C° 0 mm 2 m/s 775 mmHg 50%
    07:00 +5°C° 0 mm 2 m/s 776 mmHg 47%
    08:00 +6°C° 0 mm 2 m/s 776 mmHg 45%
    09:00 +7°C° 0 mm 2 m/s 776 mmHg 42%
    10:00 +9°C° 0 mm 2 m/s 776 mmHg 38%
    11:00 +12°C° 0 mm 2 m/s 776 mmHg 34%
    12:00 +13°C° 0 mm 2 m/s 776 mmHg 30%
    13:00 +14°C° 0 mm 2 m/s 776 mmHg 32%
    14:00 +14°C° 0 mm 2 m/s 776 mmHg 34%
    15:00 +15°C° 0 mm 2 m/s 775 mmHg 35%
    16:00 +13°C° 0 mm 2 m/s 775 mmHg 40%
    17:00 +12°C° 0 mm 2 m/s 776 mmHg 45%
    18:00 +9°C° 0 mm 2 m/s 776 mmHg 51%
    19:00 +9°C° 0 mm 2 m/s 776 mmHg 52%
    20:00 +8°C° 0 mm 2 m/s 776 mmHg 54%
    21:00 +8°C° 0 mm 2 m/s 777 mmHg 55%
    22:00 +7°C° 0 mm 2 m/s 777 mmHg 57%
    23:00 +7°C° 0 mm 2 m/s 777 mmHg 58%

    25 Février, Lundi

    Heure Température Précipitation Vent Pression Humidité
    00:00 +8°C° 0 mm 1 m/s 777 mmHg 60%
    01:00 +7°C° 0 mm 1 m/s 777 mmHg 61%
    02:00 +7°C° 0 mm 1 m/s 777 mmHg 61%
    03:00 +6°C° 0 mm 0 m/s 777 mmHg 62%
    04:00 +7°C° 0 mm 1 m/s 777 mmHg 62%
    05:00 +6°C° 0 mm 1 m/s 777 mmHg 62%
    06:00 +6°C° 0 mm 1 m/s 777 mmHg 62%
    07:00 +6°C° 0 mm 2 m/s 777 mmHg 59%
    08:00 +7°C° 0 mm 2 m/s 777 mmHg 56%
    09:00 +8°C° 0 mm 3 m/s 777 mmHg 52%
    10:00 +10°C° 0 mm 3 m/s 777 mmHg 48%
    11:00 +13°C° 0 mm 2 m/s 777 mmHg 45%
    12:00 +14°C° 0 mm 2 m/s 776 mmHg 41%
    13:00 +15°C° 0 mm 2 m/s 776 mmHg 42%
    14:00 +14°C° 0 mm 3 m/s 776 mmHg 44%
    15:00 +16°C° 0 mm 3 m/s 776 mmHg 45%
    16:00 +13°C° 0 mm 3 m/s 776 mmHg 51%
    17:00 +12°C° 0 mm 3 m/s 776 mmHg 57%
    18:00 +10°C° 0 mm 3 m/s 776 mmHg 63%
    19:00 +10°C° 0 mm 2 m/s 776 mmHg 64%
    20:00 +9°C° 0 mm 2 m/s 776 mmHg 66%
    21:00 +9°C° 0 mm 2 m/s 776 mmHg 67%
    22:00 +9°C° 0 mm 2 m/s 776 mmHg 69%
    23:00 +8°C° 0 mm 2 m/s 776 mmHg 72%

    26 Février, Mardi

    Heure Température Précipitation Vent Pression Humidité
    00:00 +8°C° 0 mm 2 m/s 776 mmHg 74%
    01:00 +8°C° 0 mm 2 m/s 775 mmHg 77%
    02:00 +7°C° 0 mm 2 m/s 775 mmHg 79%
    03:00 +7°C° 0 mm 2 m/s 775 mmHg 82%
    04:00 +7°C° 0 mm 2 m/s 775 mmHg 82%
    05:00 +6°C° 0 mm 2 m/s 774 mmHg 81%
    06:00 +6°C° 0 mm 2 m/s 774 mmHg 81%
    07:00 +7°C° 0 mm 2 m/s 774 mmHg 74%
    08:00 +9°C° 0 mm 3 m/s 774 mmHg 68%
    09:00 +10°C° 0 mm 3 m/s 774 mmHg 61%
    10:00 +11°C° 0 mm 3 m/s 774 mmHg 56%
    11:00 +13°C° 0 mm 3 m/s 774 mmHg 50%
    12:00 +16°C° 0 mm 3 m/s 774 mmHg 44%
    13:00 +16°C° 0 mm 3 m/s 773 mmHg 45%
    14:00 +16°C° 0 mm 3 m/s 773 mmHg 45%
    15:00 +17°C° 0 mm 3 m/s 773 mmHg 46%
    16:00 +14°C° 0 mm 3 m/s 773 mmHg 51%
    17:00 +13°C° 0 mm 3 m/s 773 mmHg 56%
    18:00 +11°C° 0 mm 3 m/s 773 mmHg 61%
    19:00 +11°C° 0 mm 3 m/s 772 mmHg 63%
    20:00 +10°C° 0 mm 3 m/s 772 mmHg 65%
    21:00 +9°C° 0 mm 3 m/s 772 mmHg 66%
    22:00 +9°C° 0 mm 2 m/s 772 mmHg 68%
    23:00 +8°C° 0 mm 2 m/s 772 mmHg 69%
    Voir plus